owner,sensor,date,latitude,longitude,vertical_datum,wind_speed,wind_to_direction,wind_speed_of_gust,qcFlag 
ADCP,ioos:station:wmo:42395:2,2019-07-01T00:00:00Z,26.4040,-90.7920,3.0,-9999.0,132.1875,-9999.0, 
ADCP,ioos:station:wmo:42395:2,2019-07-01T00:20:00Z,26.4040,-90.7920,3.0,-9999.0,98.4375,-9999.0, 
ADCP,ioos:station:wmo:42395:2,2019-07-01T00:40:00Z,26.4040,-90.7920,3.0,-9999.0,120.9375,-9999.0, 
ADCP,ioos:station:wmo:42395:2,2019-07-01T01:00:00Z,26.4040,-90.7920,3.0,-9999.0,116.01563,-9999.0, 
ADCP,ioos:station:wmo:42395:2,2019-07-01T01:20:00Z,26.4040,-90.7920,3.0,-9999.0,113.20313,-9999.0, 
ADCP,ioos:station:wmo:42395:2,2019-07-01T01:40:00Z,26.4040,-90.7920,3.0,-9999.0,109.6875,-9999.0, 
ADCP,ioos:station:wmo:42395:2,2019-07-01T02:00:00Z,26.4040,-90.7920,3.0,-9999.0,123.75,-9999.0, 
ADCP,ioos:station:wmo:42395:2,2019-07-01T02:20:00Z,26.4040,-90.7920,3.0,-9999.0,125.15625,-9999.0, 
ADCP,ioos:station:wmo:42395:2,2019-07-01T02:40:00Z,26.4040,-90.7920,3.0,-9999.0,130.78125,-9999.0, 
ADCP,ioos:station:wmo:42395:2,2019-07-01T03:00:00Z,26.4040,-90.7920,3.0,-9999.0,122.34375,-9999.0, 
ADCP,ioos:station:wmo:42395:2,2019-07-01T03:20:00Z,26.4040,-90.7920,3.0,-9999.0,136.40625,-9999.0, 
ADCP,ioos:station:wmo:42395:2,2019-07-01T03:40:00Z,26.4040,-90.7920,3.0,-9999.0,142.73438,-9999.0, 
ADCP,ioos:station:wmo:42395:2,2019-07-01T04:00:00Z,26.4040,-90.7920,3.0,-9999.0,172.96875,-9999.0, 
ADCP,ioos:station:wmo:42395:2,2019-07-01T04:20:00Z,26.4040,-90.7920,3.0,-9999.0,156.09375,-9999.0, 
ADCP,ioos:station:wmo:42395:2,2019-07-01T04:40:00Z,26.4040,-90.7920,3.0,-9999.0,151.875,-9999.0, 
ADCP,ioos:station:wmo:42395:2,2019-07-01T05:00:00Z,26.4040,-90.7920,3.0,-9999.0,163.82813,-9999.0, 
ADCP,ioos:station:wmo:42395:2,2019-07-01T05:20:00Z,26.4040,-90.7920,3.0,-9999.0,175.78125,-9999.0, 
ADCP,ioos:station:wmo:42395:2,2019-07-01T05:40:00Z,26.4040,-90.7920,3.0,-9999.0,153.28125,-9999.0, 
ADCP,ioos:station:wmo:42395:2,2019-07-01T06:00:00Z,26.4040,-90.7920,3.0,-9999.0,172.26563,-9999.0, 
ADCP,ioos:station:wmo:42395:2,2019-07-01T06:20:00Z,26.4040,-90.7920,3.0,-9999.0,151.17188,-9999.0, 
ADCP,ioos:station:wmo:42395:2,2019-07-01T06:40:00Z,26.4040,-90.7920,3.0,-9999.0,164.53125,-9999.0, 
ADCP,ioos:station:wmo:42395:2,2019-07-01T07:00:00Z,26.4040,-90.7920,3.0,-9999.0,181.40625,-9999.0, 
ADCP,ioos:station:wmo:42395:2,2019-07-01T07:40:00Z,26.4040,-90.7920,3.0,-9999.0,192.65625,-9999.0, 
ADCP,ioos:station:wmo:42395:2,2019-07-01T08:00:00Z,26.4040,-90.7920,3.0,-9999.0,189.84375,-9999.0, 
ADCP,ioos:station:wmo:42395:2,2019-07-01T08:20:00Z,26.4040,-90.7920,3.0,-9999.0,210.9375,-9999.0, 
ADCP,ioos:station:wmo:42395:2,2019-07-01T08:40:00Z,26.4040,-90.7920,3.0,-9999.0,214.45313,-9999.0, 
ADCP,ioos:station:wmo:42395:2,2019-07-01T09:00:00Z,26.4040,-90.7920,3.0,-9999.0,198.98438,-9999.0, 
ADCP,ioos:station:wmo:42395:2,2019-07-01T09:20:00Z,26.4040,-90.7920,3.0,-9999.0,188.4375,-9999.0, 
ADCP,ioos:station:wmo:42395:2,2019-07-01T09:40:00Z,26.4040,-90.7920,3.0,-9999.0,228.51563,-9999.0, 
ADCP,ioos:station:wmo:42395:2,2019-07-01T10:00:00Z,26.4040,-90.7920,3.0,-9999.0,177.1875,-9999.0, 
ADCP,ioos:station:wmo:42395:2,2019-07-01T10:20:00Z,26.4040,-90.7920,3.0,-9999.0,212.34375,-9999.0, 
ADCP,ioos:station:wmo:42395:2,2019-07-01T10:40:00Z,26.4040,-90.7920,3.0,-9999.0,249.60938,-9999.0, 
ADCP,ioos:station:wmo:42395:2,2019-07-01T11:00:00Z,26.4040,-90.7920,3.0,-9999.0,236.95313,-9999.0, 
ADCP,ioos:station:wmo:42395:2,2019-07-01T11:20:00Z,26.4040,-90.7920,3.0,-9999.0,200.39063,-9999.0, 
ADCP,ioos:station:wmo:42395:2,2019-07-01T11:40:00Z,26.4040,-90.7920,3.0,-9999.0,189.14063,-9999.0, 
ADCP,ioos:station:wmo:42395:2,2019-07-01T12:00:00Z,26.4040,-90.7920,3.0,-9999.0,161.71875,-9999.0, 
ADCP,ioos:station:wmo:42395:2,2019-07-01T12:20:00Z,26.4040,-90.7920,3.0,-9999.0,146.95313,-9999.0, 
ADCP,ioos:station:wmo:42395:2,2019-07-01T12:40:00Z,26.4040,-90.7920,3.0,-9999.0,157.5,-9999.0, 
ADCP,ioos:station:wmo:42395:2,2019-07-01T13:00:00Z,26.4040,-90.7920,3.0,-9999.0,156.09375,-9999.0, 
ADCP,ioos:station:wmo:42395:2,2019-07-01T13:20:00Z,26.4040,-90.7920,3.0,-9999.0,144.14063,-9999.0, 
ADCP,ioos:station:wmo:42395:2,2019-07-01T13:40:00Z,26.4040,-90.7920,3.0,-9999.0,144.84375,-9999.0, 
ADCP,ioos:station:wmo:42395:2,2019-07-01T14:00:00Z,26.4040,-90.7920,3.0,-9999.0,146.95313,-9999.0, 
ADCP,ioos:station:wmo:42395:2,2019-07-01T14:40:00Z,26.4040,-90.7920,3.0,-9999.0,111.09375,-9999.0, 
ADCP,ioos:station:wmo:42395:2,2019-07-01T15:00:00Z,26.4040,-90.7920,3.0,-9999.0,104.0625,-9999.0, 
ADCP,ioos:station:wmo:42395:2,2019-07-01T15:20:00Z,26.4040,-90.7920,3.0,-9999.0,97.03125,-9999.0, 
ADCP,ioos:station:wmo:42395:2,2019-07-01T15:40:00Z,26.4040,-90.7920,3.0,-9999.0,79.45313,-9999.0, 
ADCP,ioos:station:wmo:42395:2,2019-07-01T16:00:00Z,26.4040,-90.7920,3.0,-9999.0,122.34375,-9999.0, 
ADCP,ioos:station:wmo:42395:2,2019-07-01T16:20:00Z,26.4040,-90.7920,3.0,-9999.0,104.0625,-9999.0, 
ADCP,ioos:station:wmo:42395:2,2019-07-01T16:40:00Z,26.4040,-90.7920,3.0,-9999.0,106.875,-9999.0, 
ADCP,ioos:station:wmo:42395:2,2019-07-01T17:00:00Z,26.4040,-90.7920,3.0,-9999.0,115.3125,-9999.0, 
ADCP,ioos:station:wmo:42395:2,2019-07-01T17:20:00Z,26.4040,-90.7920,3.0,-9999.0,125.85938,-9999.0, 
ADCP,ioos:station:wmo:42395:2,2019-07-01T17:40:00Z,26.4040,-90.7920,3.0,-9999.0,132.89063,-9999.0, 
ADCP,ioos:station:wmo:42395:2,2019-07-01T18:00:00Z,26.4040,-90.7920,3.0,-9999.0,146.95313,-9999.0, 
ADCP,ioos:station:wmo:42395:2,2019-07-01T18:20:00Z,26.4040,-90.7920,3.0,-9999.0,130.07813,-9999.0, 
ADCP,ioos:station:wmo:42395:2,2019-07-01T18:40:00Z,26.4040,-90.7920,3.0,-9999.0,120.9375,-9999.0, 
ADCP,ioos:station:wmo:42395:2,2019-07-01T19:00:00Z,26.4040,-90.7920,3.0,-9999.0,196.17188,-9999.0, 
ADCP,ioos:station:wmo:42395:2,2019-07-01T19:20:00Z,26.4040,-90.7920,3.0,-9999.0,183.51563,-9999.0, 
ADCP,ioos:station:wmo:42395:2,2019-07-01T19:40:00Z,26.4040,-90.7920,3.0,-9999.0,149.76563,-9999.0, 
ADCP,ioos:station:wmo:42395:2,2019-07-01T20:00:00Z,26.4040,-90.7920,3.0,-9999.0,171.5625,-9999.0, 
ADCP,ioos:station:wmo:42395:2,2019-07-01T20:20:00Z,26.4040,-90.7920,3.0,-9999.0,156.09375,-9999.0, 
ADCP,ioos:station:wmo:42395:2,2019-07-01T20:40:00Z,26.4040,-90.7920,3.0,-9999.0,156.09375,-9999.0, 
ADCP,ioos:station:wmo:42395:2,2019-07-01T21:00:00Z,26.4040,-90.7920,3.0,-9999.0,160.3125,-9999.0, 
ADCP,ioos:station:wmo:42395:2,2019-07-01T21:20:00Z,26.4040,-90.7920,3.0,-9999.0,140.625,-9999.0, 
ADCP,ioos:station:wmo:42395:2,2019-07-01T21:40:00Z,26.4040,-90.7920,3.0,-9999.0,149.0625,-9999.0, 
ADCP,ioos:station:wmo:42395:2,2019-07-01T22:00:00Z,26.4040,-90.7920,3.0,-9999.0,156.79688,-9999.0, 
ADCP,ioos:station:wmo:42395:2,2019-07-01T22:20:00Z,26.4040,-90.7920,3.0,-9999.0,118.125,-9999.0, 
ADCP,ioos:station:wmo:42395:2,2019-07-01T22:40:00Z,26.4040,-90.7920,3.0,-9999.0,138.51563,-9999.0, 
ADCP,ioos:station:wmo:42395:2,2019-07-01T23:00:00Z,26.4040,-90.7920,3.0,-9999.0,144.84375,-9999.0, 
ADCP,ioos:station:wmo:42395:2,2019-07-01T23:20:00Z,26.4040,-90.7920,3.0,-9999.0,136.40625,-9999.0, 
ADCP,ioos:station:wmo:42395:2,2019-07-01T23:40:00Z,26.4040,-90.7920,3.0,-9999.0,120.23438,-9999.0, 
ADCP,ioos:station:wmo:42395:2,2019-07-02T00:00:00Z,26.4040,-90.7920,3.0,-9999.0,78.04688,-9999.0, 
ADCP,ioos:station:wmo:42395:2,2019-07-02T00:20:00Z,26.4040,-90.7920,3.0,-9999.0,101.95313,-9999.0, 
ADCP,ioos:station:wmo:42395:2,2019-07-02T00:40:00Z,26.4040,-90.7920,3.0,-9999.0,101.25,-9999.0, 
ADCP,ioos:station:wmo:42395:2,2019-07-02T01:00:00Z,26.4040,-90.7920,3.0,-9999.0,128.67188,-9999.0, 
ADCP,ioos:station:wmo:42395:2,2019-07-02T01:20:00Z,26.4040,-90.7920,3.0,-9999.0,116.01563,-9999.0, 
ADCP,ioos:station:wmo:42395:2,2019-07-02T02:00:00Z,26.4040,-90.7920,3.0,-9999.0,132.89063,-9999.0, 
ADCP,ioos:station:wmo:42395:2,2019-07-02T02:20:00Z,26.4040,-90.7920,3.0,-9999.0,151.17188,-9999.0, 
ADCP,ioos:station:wmo:42395:2,2019-07-02T02:40:00Z,26.4040,-90.7920,3.0,-9999.0,131.48438,-9999.0, 
ADCP,ioos:station:wmo:42395:2,2019-07-02T03:00:00Z,26.4040,-90.7920,3.0,-9999.0,140.625,-9999.0, 
ADCP,ioos:station:wmo:42395:2,2019-07-02T03:20:00Z,26.4040,-90.7920,3.0,-9999.0,137.8125,-9999.0, 
ADCP,ioos:station:wmo:42395:2,2019-07-02T03:40:00Z,26.4040,-90.7920,3.0,-9999.0,156.09375,-9999.0, 
ADCP,ioos:station:wmo:42395:2,2019-07-02T04:00:00Z,26.4040,-90.7920,3.0,-9999.0,165.9375,-9999.0, 
ADCP,ioos:station:wmo:42395:2,2019-07-02T04:20:00Z,26.4040,-90.7920,3.0,-9999.0,146.95313,-9999.0, 
ADCP,ioos:station:wmo:42395:2,2019-07-02T04:40:00Z,26.4040,-90.7920,3.0,-9999.0,149.0625,-9999.0, 
ADCP,ioos:station:wmo:42395:2,2019-07-02T05:00:00Z,26.4040,-90.7920,3.0,-9999.0,151.17188,-9999.0, 
ADCP,ioos:station:wmo:42395:2,2019-07-02T05:20:00Z,26.4040,-90.7920,3.0,-9999.0,173.67188,-9999.0, 
ADCP,ioos:station:wmo:42395:2,2019-07-02T05:40:00Z,26.4040,-90.7920,3.0,-9999.0,168.04688,-9999.0, 
ADCP,ioos:station:wmo:42395:2,2019-07-02T06:00:00Z,26.4040,-90.7920,3.0,-9999.0,168.04688,-9999.0, 
ADCP,ioos:station:wmo:42395:2,2019-07-02T06:20:00Z,26.4040,-90.7920,3.0,-9999.0,180.0,-9999.0, 
ADCP,ioos:station:wmo:42395:2,2019-07-02T06:40:00Z,26.4040,-90.7920,3.0,-9999.0,177.89063,-9999.0, 
ADCP,ioos:station:wmo:42395:2,2019-07-02T07:00:00Z,26.4040,-90.7920,3.0,-9999.0,196.17188,-9999.0, 
ADCP,ioos:station:wmo:42395:2,2019-07-02T07:20:00Z,26.4040,-90.7920,3.0,-9999.0,173.67188,-9999.0, 
ADCP,ioos:station:wmo:42395:2,2019-07-02T07:40:00Z,26.4040,-90.7920,3.0,-9999.0,194.76563,-9999.0, 
ADCP,ioos:station:wmo:42395:2,2019-07-02T08:00:00Z,26.4040,-90.7920,3.0,-9999.0,174.375,-9999.0, 
ADCP,ioos:station:wmo:42395:2,2019-07-02T08:20:00Z,26.4040,-90.7920,3.0,-9999.0,196.17188,-9999.0, 
ADCP,ioos:station:wmo:42395:2,2019-07-02T08:40:00Z,26.4040,-90.7920,3.0,-9999.0,175.78125,-9999.0, 
ADCP,ioos:station:wmo:42395:2,2019-07-02T09:00:00Z,26.4040,-90.7920,3.0,-9999.0,165.23438,-9999.0, 
ADCP,ioos:station:wmo:42395:2,2019-07-02T09:20:00Z,26.4040,-90.7920,3.0,-9999.0,174.375,-9999.0, 
ADCP,ioos:station:wmo:42395:2,2019-07-02T09:40:00Z,26.4040,-90.7920,3.0,-9999.0,174.375,-9999.0, 
ADCP,ioos:station:wmo:42395:2,2019-07-02T10:20:00Z,26.4040,-90.7920,3.0,-9999.0,199.6875,-9999.0, 
ADCP,ioos:station:wmo:42395:2,2019-07-02T10:40:00Z,26.4040,-90.7920,3.0,-9999.0,177.89063,-9999.0, 
ADCP,ioos:station:wmo:42395:2,2019-07-02T11:00:00Z,26.4040,-90.7920,3.0,-9999.0,180.0,-9999.0, 
ADCP,ioos:station:wmo:42395:2,2019-07-02T11:20:00Z,26.4040,-90.7920,3.0,-9999.0,164.53125,-9999.0, 
ADCP,ioos:station:wmo:42395:2,2019-07-02T11:40:00Z,26.4040,-90.7920,3.0,-9999.0,178.59375,-9999.0, 
ADCP,ioos:station:wmo:42395:2,2019-07-02T12:00:00Z,26.4040,-90.7920,3.0,-9999.0,168.04688,-9999.0, 
ADCP,ioos:station:wmo:42395:2,2019-07-02T12:20:00Z,26.4040,-90.7920,3.0,-9999.0,155.39063,-9999.0, 
ADCP,ioos:station:wmo:42395:2,2019-07-02T12:40:00Z,26.4040,-90.7920,3.0,-9999.0,141.32813,-9999.0, 
ADCP,ioos:station:wmo:42395:2,2019-07-02T13:00:00Z,26.4040,-90.7920,3.0,-9999.0,161.71875,-9999.0, 
ADCP,ioos:station:wmo:42395:2,2019-07-02T13:20:00Z,26.4040,-90.7920,3.0,-9999.0,154.6875,-9999.0, 
ADCP,ioos:station:wmo:42395:2,2019-07-02T13:40:00Z,26.4040,-90.7920,3.0,-9999.0,168.04688,-9999.0, 
ADCP,ioos:station:wmo:42395:2,2019-07-02T14:00:00Z,26.4040,-90.7920,3.0,-9999.0,187.03125,-9999.0, 
ADCP,ioos:station:wmo:42395:2,2019-07-02T14:20:00Z,26.4040,-90.7920,3.0,-9999.0,175.78125,-9999.0, 
ADCP,ioos:station:wmo:42395:2,2019-07-02T14:40:00Z,26.4040,-90.7920,3.0,-9999.0,163.82813,-9999.0, 
ADCP,ioos:station:wmo:42395:2,2019-07-02T15:00:00Z,26.4040,-90.7920,3.0,-9999.0,178.59375,-9999.0, 
ADCP,ioos:station:wmo:42395:2,2019-07-02T15:20:00Z,26.4040,-90.7920,3.0,-9999.0,139.21875,-9999.0, 
ADCP,ioos:station:wmo:42395:2,2019-07-02T15:40:00Z,26.4040,-90.7920,3.0,-9999.0,172.96875,-9999.0, 
ADCP,ioos:station:wmo:42395:2,2019-07-02T16:00:00Z,26.4040,-90.7920,3.0,-9999.0,187.03125,-9999.0, 
ADCP,ioos:station:wmo:42395:2,2019-07-02T16:20:00Z,26.4040,-90.7920,3.0,-9999.0,130.78125,-9999.0, 
ADCP,ioos:station:wmo:42395:2,2019-07-02T16:40:00Z,26.4040,-90.7920,3.0,-9999.0,151.875,-9999.0, 
ADCP,ioos:station:wmo:42395:2,2019-07-02T17:00:00Z,26.4040,-90.7920,3.0,-9999.0,153.28125,-9999.0, 
ADCP,ioos:station:wmo:42395:2,2019-07-02T17:20:00Z,26.4040,-90.7920,3.0,-9999.0,139.92188,-9999.0, 
ADCP,ioos:station:wmo:42395:2,2019-07-02T17:40:00Z,26.4040,-90.7920,3.0,-9999.0,106.875,-9999.0, 
ADCP,ioos:station:wmo:42395:2,2019-07-02T18:00:00Z,26.4040,-90.7920,3.0,-9999.0,128.67188,-9999.0, 
ADCP,ioos:station:wmo:42395:2,2019-07-02T18:20:00Z,26.4040,-90.7920,3.0,-9999.0,135.0,-9999.0, 
ADCP,ioos:station:wmo:42395:2,2019-07-02T18:40:00Z,26.4040,-90.7920,3.0,-9999.0,122.34375,-9999.0, 
ADCP,ioos:station:wmo:42395:2,2019-07-02T19:00:00Z,26.4040,-90.7920,3.0,-9999.0,123.04688,-9999.0, 
ADCP,ioos:station:wmo:42395:2,2019-07-02T19:20:00Z,26.4040,-90.7920,3.0,-9999.0,139.21875,-9999.0, 
ADCP,ioos:station:wmo:42395:2,2019-07-02T19:40:00Z,26.4040,-90.7920,3.0,-9999.0,131.48438,-9999.0, 
ADCP,ioos:station:wmo:42395:2,2019-07-02T20:00:00Z,26.4040,-90.7920,3.0,-9999.0,118.82813,-9999.0, 
ADCP,ioos:station:wmo:42395:2,2019-07-02T20:20:00Z,26.4040,-90.7920,3.0,-9999.0,113.20313,-9999.0, 
ADCP,ioos:station:wmo:42395:2,2019-07-02T20:40:00Z,26.4040,-90.7920,3.0,-9999.0,122.34375,-9999.0, 
ADCP,ioos:station:wmo:42395:2,2019-07-02T21:00:00Z,26.4040,-90.7920,3.0,-9999.0,135.70313,-9999.0, 
ADCP,ioos:station:wmo:42395:2,2019-07-02T21:20:00Z,26.4040,-90.7920,3.0,-9999.0,134.29688,-9999.0, 
ADCP,ioos:station:wmo:42395:2,2019-07-02T21:40:00Z,26.4040,-90.7920,3.0,-9999.0,130.78125,-9999.0, 
ADCP,ioos:station:wmo:42395:2,2019-07-02T22:00:00Z,26.4040,-90.7920,3.0,-9999.0,135.0,-9999.0, 
ADCP,ioos:station:wmo:42395:2,2019-07-02T22:20:00Z,26.4040,-90.7920,3.0,-9999.0,120.9375,-9999.0, 
ADCP,ioos:station:wmo:42395:2,2019-07-02T22:40:00Z,26.4040,-90.7920,3.0,-9999.0,120.9375,-9999.0, 
ADCP,ioos:station:wmo:42395:2,2019-07-02T23:00:00Z,26.4040,-90.7920,3.0,-9999.0,114.60938,-9999.0, 
ADCP,ioos:station:wmo:42395:2,2019-07-02T23:20:00Z,26.4040,-90.7920,3.0,-9999.0,109.6875,-9999.0, 
ADCP,ioos:station:wmo:42395:2,2019-07-02T23:40:00Z,26.4040,-90.7920,3.0,-9999.0,101.95313,-9999.0, 
ADCP,ioos:station:wmo:42395:2,2019-07-03T00:00:00Z,26.4040,-90.7920,3.0,-9999.0,117.42188,-9999.0, 
ADCP,ioos:station:wmo:42395:2,2019-07-03T00:20:00Z,26.4040,-90.7920,3.0,-9999.0,135.70313,-9999.0, 
ADCP,ioos:station:wmo:42395:2,2019-07-03T00:40:00Z,26.4040,-90.7920,3.0,-9999.0,40.07813,-9999.0, 
ADCP,ioos:station:wmo:42395:2,2019-07-03T01:00:00Z,26.4040,-90.7920,3.0,-9999.0,339.60938,-9999.0, 
ADCP,ioos:station:wmo:42395:2,2019-07-03T01:20:00Z,26.4040,-90.7920,3.0,-9999.0,17.57813,-9999.0, 
ADCP,ioos:station:wmo:42395:2,2019-07-03T01:40:00Z,26.4040,-90.7920,3.0,-9999.0,9.14063,-9999.0, 
ADCP,ioos:station:wmo:42395:2,2019-07-03T02:00:00Z,26.4040,-90.7920,3.0,-9999.0,9.14063,-9999.0, 
ADCP,ioos:station:wmo:42395:2,2019-07-03T02:20:00Z,26.4040,-90.7920,3.0,-9999.0,26.01563,-9999.0, 
ADCP,ioos:station:wmo:42395:2,2019-07-03T02:40:00Z,26.4040,-90.7920,3.0,-9999.0,21.09375,-9999.0, 
ADCP,ioos:station:wmo:42395:2,2019-07-03T03:00:00Z,26.4040,-90.7920,3.0,-9999.0,48.51563,-9999.0, 
ADCP,ioos:station:wmo:42395:2,2019-07-03T03:20:00Z,26.4040,-90.7920,3.0,-9999.0,53.4375,-9999.0, 
ADCP,ioos:station:wmo:42395:2,2019-07-03T03:40:00Z,26.4040,-90.7920,3.0,-9999.0,62.57813,-9999.0, 
ADCP,ioos:station:wmo:42395:2,2019-07-03T04:00:00Z,26.4040,-90.7920,3.0,-9999.0,97.03125,-9999.0, 
ADCP,ioos:station:wmo:42395:2,2019-07-03T04:20:00Z,26.4040,-90.7920,3.0,-9999.0,91.40625,-9999.0, 
ADCP,ioos:station:wmo:42395:2,2019-07-03T04:40:00Z,26.4040,-90.7920,3.0,-9999.0,80.85938,-9999.0, 
ADCP,ioos:station:wmo:42395:2,2019-07-03T05:00:00Z,26.4040,-90.7920,3.0,-9999.0,137.8125,-9999.0, 
ADCP,ioos:station:wmo:42395:2,2019-07-03T05:20:00Z,26.4040,-90.7920,3.0,-9999.0,132.89063,-9999.0, 
ADCP,ioos:station:wmo:42395:2,2019-07-03T05:40:00Z,26.4040,-90.7920,3.0,-9999.0,147.65625,-9999.0, 
ADCP,ioos:station:wmo:42395:2,2019-07-03T06:20:00Z,26.4040,-90.7920,3.0,-9999.0,146.25,-9999.0, 
ADCP,ioos:station:wmo:42395:2,2019-07-03T06:40:00Z,26.4040,-90.7920,3.0,-9999.0,130.78125,-9999.0, 
ADCP,ioos:station:wmo:42395:2,2019-07-03T07:00:00Z,26.4040,-90.7920,3.0,-9999.0,132.89063,-9999.0, 
ADCP,ioos:station:wmo:42395:2,2019-07-03T07:20:00Z,26.4040,-90.7920,3.0,-9999.0,157.5,-9999.0, 
ADCP,ioos:station:wmo:42395:2,2019-07-03T07:40:00Z,26.4040,-90.7920,3.0,-9999.0,145.54688,-9999.0, 
ADCP,ioos:station:wmo:42395:2,2019-07-03T08:00:00Z,26.4040,-90.7920,3.0,-9999.0,172.96875,-9999.0, 
ADCP,ioos:station:wmo:42395:2,2019-07-03T08:20:00Z,26.4040,-90.7920,3.0,-9999.0,168.75,-9999.0, 
ADCP,ioos:station:wmo:42395:2,2019-07-03T08:40:00Z,26.4040,-90.7920,3.0,-9999.0,177.1875,-9999.0, 
ADCP,ioos:station:wmo:42395:2,2019-07-03T09:00:00Z,26.4040,-90.7920,3.0,-9999.0,163.82813,-9999.0, 
ADCP,ioos:station:wmo:42395:2,2019-07-03T09:20:00Z,26.4040,-90.7920,3.0,-9999.0,196.17188,-9999.0, 
ADCP,ioos:station:wmo:42395:2,2019-07-03T09:40:00Z,26.4040,-90.7920,3.0,-9999.0,170.15625,-9999.0, 
ADCP,ioos:station:wmo:42395:2,2019-07-03T10:00:00Z,26.4040,-90.7920,3.0,-9999.0,196.17188,-9999.0, 
ADCP,ioos:station:wmo:42395:2,2019-07-03T10:20:00Z,26.4040,-90.7920,3.0,-9999.0,184.92188,-9999.0, 
ADCP,ioos:station:wmo:42395:2,2019-07-03T10:40:00Z,26.4040,-90.7920,3.0,-9999.0,188.4375,-9999.0, 
ADCP,ioos:station:wmo:42395:2,2019-07-03T11:00:00Z,26.4040,-90.7920,3.0,-9999.0,208.125,-9999.0, 
ADCP,ioos:station:wmo:42395:2,2019-07-03T11:20:00Z,26.4040,-90.7920,3.0,-9999.0,191.25,-9999.0, 
ADCP,ioos:station:wmo:42395:2,2019-07-03T11:40:00Z,26.4040,-90.7920,3.0,-9999.0,196.17188,-9999.0, 
ADCP,ioos:station:wmo:42395:2,2019-07-03T12:00:00Z,26.4040,-90.7920,3.0,-9999.0,165.9375,-9999.0, 
ADCP,ioos:station:wmo:42395:2,2019-07-03T12:20:00Z,26.4040,-90.7920,3.0,-9999.0,182.8125,-9999.0, 
ADCP,ioos:station:wmo:42395:2,2019-07-03T12:40:00Z,26.4040,-90.7920,3.0,-9999.0,196.875,-9999.0, 
ADCP,ioos:station:wmo:42395:2,2019-07-03T13:00:00Z,26.4040,-90.7920,3.0,-9999.0,182.8125,-9999.0, 
ADCP,ioos:station:wmo:42395:2,2019-07-03T13:20:00Z,26.4040,-90.7920,3.0,-9999.0,183.51563,-9999.0, 
ADCP,ioos:station:wmo:42395:2,2019-07-03T13:40:00Z,26.4040,-90.7920,3.0,-9999.0,206.71875,-9999.0, 
ADCP,ioos:station:wmo:42395:2,2019-07-03T14:00:00Z,26.4040,-90.7920,3.0,-9999.0,204.60938,-9999.0, 
ADCP,ioos:station:wmo:42395:2,2019-07-03T14:20:00Z,26.4040,-90.7920,3.0,-9999.0,179.29688,-9999.0, 
ADCP,ioos:station:wmo:42395:2,2019-07-03T14:40:00Z,26.4040,-90.7920,3.0,-9999.0,186.32813,-9999.0, 
ADCP,ioos:station:wmo:42395:2,2019-07-03T15:00:00Z,26.4040,-90.7920,3.0,-9999.0,203.20313,-9999.0, 
ADCP,ioos:station:wmo:42395:2,2019-07-03T15:20:00Z,26.4040,-90.7920,3.0,-9999.0,187.73438,-9999.0, 
ADCP,ioos:station:wmo:42395:2,2019-07-03T15:40:00Z,26.4040,-90.7920,3.0,-9999.0,191.95313,-9999.0, 
ADCP,ioos:station:wmo:42395:2,2019-07-03T16:00:00Z,26.4040,-90.7920,3.0,-9999.0,170.85938,-9999.0, 
ADCP,ioos:station:wmo:42395:2,2019-07-03T16:20:00Z,26.4040,-90.7920,3.0,-9999.0,128.67188,-9999.0, 
ADCP,ioos:station:wmo:42395:2,2019-07-03T16:40:00Z,26.4040,-90.7920,3.0,-9999.0,157.5,-9999.0, 
ADCP,ioos:station:wmo:42395:2,2019-07-03T17:00:00Z,26.4040,-90.7920,3.0,-9999.0,127.96875,-9999.0, 
ADCP,ioos:station:wmo:42395:2,2019-07-03T17:20:00Z,26.4040,-90.7920,3.0,-9999.0,129.375,-9999.0, 
ADCP,ioos:station:wmo:42395:2,2019-07-03T17:40:00Z,26.4040,-90.7920,3.0,-9999.0,130.78125,-9999.0, 
ADCP,ioos:station:wmo:42395:2,2019-07-03T18:00:00Z,26.4040,-90.7920,3.0,-9999.0,115.3125,-9999.0, 
ADCP,ioos:station:wmo:42395:2,2019-07-03T18:20:00Z,26.4040,-90.7920,3.0,-9999.0,123.75,-9999.0, 
ADCP,ioos:station:wmo:42395:2,2019-07-03T18:40:00Z,26.4040,-90.7920,3.0,-9999.0,129.375,-9999.0, 
ADCP,ioos:station:wmo:42395:2,2019-07-03T19:00:00Z,26.4040,-90.7920,3.0,-9999.0,114.60938,-9999.0, 
ADCP,ioos:station:wmo:42395:2,2019-07-03T19:20:00Z,26.4040,-90.7920,3.0,-9999.0,110.39063,-9999.0, 
ADCP,ioos:station:wmo:42395:2,2019-07-03T19:40:00Z,26.4040,-90.7920,3.0,-9999.0,94.21875,-9999.0, 
ADCP,ioos:station:wmo:42395:2,2019-07-03T20:00:00Z,26.4040,-90.7920,3.0,-9999.0,111.09375,-9999.0, 
ADCP,ioos:station:wmo:42395:2,2019-07-03T20:20:00Z,26.4040,-90.7920,3.0,-9999.0,112.5,-9999.0, 
ADCP,ioos:station:wmo:42395:2,2019-07-03T20:40:00Z,26.4040,-90.7920,3.0,-9999.0,113.90625,-9999.0, 
ADCP,ioos:station:wmo:42395:2,2019-07-03T21:00:00Z,26.4040,-90.7920,3.0,-9999.0,134.29688,-9999.0, 
ADCP,ioos:station:wmo:42395:2,2019-07-03T21:20:00Z,26.4040,-90.7920,3.0,-9999.0,135.70313,-9999.0, 
ADCP,ioos:station:wmo:42395:2,2019-07-03T21:40:00Z,26.4040,-90.7920,3.0,-9999.0,118.125,-9999.0, 
ADCP,ioos:station:wmo:42395:2,2019-07-03T22:00:00Z,26.4040,-90.7920,3.0,-9999.0,144.84375,-9999.0, 
ADCP,ioos:station:wmo:42395:2,2019-07-03T22:20:00Z,26.4040,-90.7920,3.0,-9999.0,149.76563,-9999.0, 
ADCP,ioos:station:wmo:42395:2,2019-07-03T22:40:00Z,26.4040,-90.7920,3.0,-9999.0,132.89063,-9999.0, 
ADCP,ioos:station:wmo:42395:2,2019-07-03T23:00:00Z,26.4040,-90.7920,3.0,-9999.0,146.25,-9999.0, 
ADCP,ioos:station:wmo:42395:2,2019-07-03T23:20:00Z,26.4040,-90.7920,3.0,-9999.0,155.39063,-9999.0, 
ADCP,ioos:station:wmo:42395:2,2019-07-03T23:40:00Z,26.4040,-90.7920,3.0,-9999.0,149.0625,-9999.0, 
ADCP,ioos:station:wmo:42395:2,2019-07-04T00:00:00Z,26.4040,-90.7920,3.0,-9999.0,124.45313,-9999.0, 
ADCP,ioos:station:wmo:42395:2,2019-07-04T00:20:00Z,26.4040,-90.7920,3.0,-9999.0,158.20313,-9999.0, 
ADCP,ioos:station:wmo:42395:2,2019-07-04T00:40:00Z,26.4040,-90.7920,3.0,-9999.0,172.26563,-9999.0, 
ADCP,ioos:station:wmo:42395:2,2019-07-04T01:00:00Z,26.4040,-90.7920,3.0,-9999.0,186.32813,-9999.0, 
ADCP,ioos:station:wmo:42395:2,2019-07-04T01:20:00Z,26.4040,-90.7920,3.0,-9999.0,175.78125,-9999.0, 
ADCP,ioos:station:wmo:42395:2,2019-07-04T01:40:00Z,26.4040,-90.7920,3.0,-9999.0,163.82813,-9999.0, 
ADCP,ioos:station:wmo:42395:2,2019-07-04T02:00:00Z,26.4040,-90.7920,3.0,-9999.0,159.60938,-9999.0, 
ADCP,ioos:station:wmo:42395:2,2019-07-04T02:20:00Z,26.4040,-90.7920,3.0,-9999.0,132.89063,-9999.0, 
ADCP,ioos:station:wmo:42395:2,2019-07-04T02:40:00Z,26.4040,-90.7920,3.0,-9999.0,142.03125,-9999.0, 
ADCP,ioos:station:wmo:42395:2,2019-07-04T03:00:00Z,26.4040,-90.7920,3.0,-9999.0,155.39063,-9999.0, 
ADCP,ioos:station:wmo:42395:2,2019-07-04T03:20:00Z,26.4040,-90.7920,3.0,-9999.0,138.51563,-9999.0, 
ADCP,ioos:station:wmo:42395:2,2019-07-04T03:40:00Z,26.4040,-90.7920,3.0,-9999.0,156.79688,-9999.0, 
ADCP,ioos:station:wmo:42395:2,2019-07-04T04:00:00Z,26.4040,-90.7920,3.0,-9999.0,172.96875,-9999.0, 
ADCP,ioos:station:wmo:42395:2,2019-07-04T04:20:00Z,26.4040,-90.7920,3.0,-9999.0,163.82813,-9999.0, 
ADCP,ioos:station:wmo:42395:2,2019-07-04T04:40:00Z,26.4040,-90.7920,3.0,-9999.0,168.75,-9999.0, 
ADCP,ioos:station:wmo:42395:2,2019-07-04T05:00:00Z,26.4040,-90.7920,3.0,-9999.0,180.70313,-9999.0, 
ADCP,ioos:station:wmo:42395:2,2019-07-04T05:20:00Z,26.4040,-90.7920,3.0,-9999.0,184.21875,-9999.0, 
ADCP,ioos:station:wmo:42395:2,2019-07-04T05:40:00Z,26.4040,-90.7920,3.0,-9999.0,172.26563,-9999.0, 
ADCP,ioos:station:wmo:42395:2,2019-07-04T06:00:00Z,26.4040,-90.7920,3.0,-9999.0,156.09375,-9999.0, 
ADCP,ioos:station:wmo:42395:2,2019-07-04T06:20:00Z,26.4040,-90.7920,3.0,-9999.0,182.10938,-9999.0, 
ADCP,ioos:station:wmo:42395:2,2019-07-04T06:40:00Z,26.4040,-90.7920,3.0,-9999.0,179.29688,-9999.0, 
ADCP,ioos:station:wmo:42395:2,2019-07-04T07:00:00Z,26.4040,-90.7920,3.0,-9999.0,180.70313,-9999.0, 
ADCP,ioos:station:wmo:42395:2,2019-07-04T07:20:00Z,26.4040,-90.7920,3.0,-9999.0,172.96875,-9999.0, 
ADCP,ioos:station:wmo:42395:2,2019-07-04T07:40:00Z,26.4040,-90.7920,3.0,-9999.0,163.82813,-9999.0, 
ADCP,ioos:station:wmo:42395:2,2019-07-04T08:00:00Z,26.4040,-90.7920,3.0,-9999.0,145.54688,-9999.0, 
ADCP,ioos:station:wmo:42395:2,2019-07-04T08:20:00Z,26.4040,-90.7920,3.0,-9999.0,160.3125,-9999.0, 
ADCP,ioos:station:wmo:42395:2,2019-07-04T08:40:00Z,26.4040,-90.7920,3.0,-9999.0,171.5625,-9999.0, 
ADCP,ioos:station:wmo:42395:2,2019-07-04T09:00:00Z,26.4040,-90.7920,3.0,-9999.0,163.82813,-9999.0, 
ADCP,ioos:station:wmo:42395:2,2019-07-04T09:20:00Z,26.4040,-90.7920,3.0,-9999.0,152.57813,-9999.0, 